Theta_e
311 311 311 311 311 312 316 314 313 312 311 312 310 309 308 309 309 311 311 314 318 319 319 318 314 315 315 315 313 311 312 314 331 340 340 336 337 337 337 335 336 334 332 332 334
311 311 311 311 311 311 313 314 313 312 312 312 310 310 310 310 315 315 314 315 318 318 317 314 315 317 314 314 313 312 313 322 332 335 337 338 339 340 337 338 336 334 332 333 337
311 311 311 311 311 311 311 315 313 313 312 312 311 313 314 313 326 323 317 315 321 320 315 316 317 318 317 314 316 314 321 330 337 336 336 340 340 339 337 339 335 335 335 336 337
311 311 310 311 311 311 311 312 315 313 313 314 314 316 319 319 328 326 324 319 317 317 317 318 316 315 315 317 315 320 334 339 339 340 337 339 339 339 337 338 334 334 334 336 337
309 310 310 310 311 311 311 312 313 316 314 315 315 316 321 322 323 329 322 320 318 317 316 316 318 316 317 316 316 323 339 339 337 335 334 335 337 337 337 338 333 332 333 335 335
309 310 310 311 311 312 312 312 313 314 316 315 315 316 327 324 327 326 319 317 317 317 318 318 319 316 316 316 317 334 339 340 336 335 335 335 336 338 335 336 337 333 340 343 342
310 311 311 312 311 312 312 314 315 314 318 315 315 317 326 320 326 320 317 317 317 318 319 320 320 316 317 317 326 336 340 339 339 337 337 335 336 339 337 336 339 341 347 346 345
311 312 312 312 312 312 313 318 319 317 318 316 316 323 325 326 328 324 318 321 320 319 319 320 318 314 317 315 322 333 327 342 339 338 337 337 335 338 337 338 339 346 348 347 345
312 312 313 313 312 312 316 318 319 321 320 318 323 325 318 323 323 325 323 321 319 318 319 318 315 313 313 312 312 314 317 319 341 336 336 338 341 337 337 339 340 346 347 346 345
311 312 312 312 312 312 316 319 321 322 322 322 323 318 320 325 324 322 323 321 318 317 317 316 309 311 308 311 316 316 317 319 334 333 336 339 340 339 341 341 343 346 346 347 347
306 307 307 309 311 313 317 318 313 313 317 316 315 319 318 320 322 321 321 319 320 317 317 314 313 312 312 313 314 316 316 316 315 319 337 340 339 342 339 342 345 345 346 347 347
302 302 302 304 307 315 314 315 316 316 314 314 314 316 319 321 320 319 321 320 320 319 317 315 315 314 313 313 315 315 316 315 314 324 331 335 340 343 338 344 346 346 345 345 342
300 300 302 304 308 312 313 317 312 314 314 317 316 316 318 320 319 319 318 319 319 319 318 316 317 317 317 317 317 316 317 316 318 322 325 338 340 345 342 344 344 344 344 344 345
300 301 301 303 309 306 312 312 314 315 317 322 321 318 318 318 319 320 319 319 318 318 316 316 317 318 318 317 315 317 316 317 322 323 323 328 341 325 342 345 344 343 342 343 344
301 301 302 301 304 305 309 309 317 316 325 327 322 320 317 318 320 320 319 319 319 319 318 318 318 318 320 318 317 317 316 318 321 320 321 321 319 318 329 338 343 342 343 343 341
301 302 301 303 303 306 308 310 317 320 321 327 319 319 319 319 320 319 320 318 318 318 318 317 318 319 319 320 318 319 319 316 315 315 319 318 318 317 317 328 339 338 342 343 340
301 302 301 302 306 307 306 315 315 316 320 324 322 321 317 317 318 319 319 318 317 318 318 318 319 319 320 321 319 316 316 318 319 317 321 317 318 318 321 323 321 331 340 343 340
301 303 304 304 305 305 311 314 317 317 324 322 321 321 318 318 318 320 318 317 317 317 316 317 320 321 322 321 320 319 316 317 320 318 317 317 321 322 327 325 334 323 334 341 338
301 304 306 307 307 308 311 313 312 316 320 319 318 321 320 320 321 320 317 317 317 315 317 318 319 320 321 321 319 320 319 315 317 317 320 319 325 327 327 335 341 340 341 340 337
309 311 310 312 310 314 313 312 316 319 317 316 316 320 320 319 320 321 320 319 318 316 316 318 319 320 323 320 320 319 317 321 317 323 325 321 324 325 328 332 340 340 338 336 332
312 308 312 313 313 311 315 314 317 317 317 318 318 319 319 319 319 320 321 322 323 323 315 317 318 320 323 322 321 321 319 315 316 319 323 324 323 320 326 325 336 337 336 334 333
307 304 312 313 311 311 314 316 318 319 317 317 318 318 319 319 319 319 320 322 322 324 324 318 316 319 321 321 320 320 320 317 320 321 319 319 319 318 323 323 325 333 335 334 333
303 306 309 313 314 314 316 319 319 320 319 319 319 319 319 319 319 319 319 321 322 324 324 322 318 319 319 320 320 324 321 318 317 316 322 323 322 321 324 324 324 322 324 332 331
305 307 308 307 308 316 318 318 319 319 318 318 318 318 318 319 315 317 321 322 323 324 328 323 318 318 321 319 320 323 324 322 321 324 323 321 322 322 322 324 323 324 322 327 330
304 303 308 311 312 311 315 317 319 319 319 317 319 319 320 319 319 319 320 322 323 325 323 318 321 323 322 320 325 326 325 324 325 323 325 323 322 322 321 320 319 320 324 324 328
306 309 309 310 310 312 316 318 321 321 321 321 319 319 318 318 318 321 320 321 321 324 324 320 323 325 325 325 325 326 324 323 322 322 322 322 321 318 319 318 319 319 320 324 324
305 306 309 310 313 314 313 318 317 316 315 316 314 315 318 320 321 321 321 321 324 324 321 322 322 323 324 325 326 328 325 324 323 321 321 321 320 319 320 320 319 319 323 325 325
Wind_Speed
30 30 30 29 29 29 19 13 11 9 9 9 9 9 8 8 9 6 6 6 5 2 4 4 2 1 2 2 4 4 4 2 7 9 5 3 4 3 2 8 3 6 8 13 30
30 31 30 30 28 27 25 16 12 10 9 8 9 8 7 9 8 10 9 9 8 3 1 3 2 4 3 1 2 4 4 8 7 9 9 10 9 10 6 4 2 8 13 26 30
30 31 31 30 30 27 26 20 13 10 9 8 8 8 9 8 3 7 5 14 8 4 2 1 1 2 1 1 3 4 4 5 5 5 16 11 7 4 9 4 6 18 17 21 25
30 30 31 30 30 28 27 21 14 10 8 8 10 11 10 3 2 2 3 13 14 6 2 3 3 2 1 1 5 3 2 6 3 4 6 8 5 6 2 4 10 16 19 19 16
31 31 31 31 30 28 27 22 15 10 7 8 9 12 3 2 7 4 3 11 11 6 5 3 2 2 1 3 0 4 3 5 4 5 5 6 5 3 2 3 9 9 16 14 11
32 32 33 32 31 29 28 21 15 11 7 7 7 10 2 3 4 5 7 10 7 9 5 6 3 3 3 3 1 4 8 5 6 5 4 5 2 2 6 5 6 8 9 8 11
33 33 33 33 32 31 28 20 17 13 6 6 6 7 3 9 4 4 8 6 8 8 3 5 4 2 3 1 3 9 7 7 4 3 1 3 4 5 3 5 6 8 8 9 8
34 35 35 34 33 33 28 25 16 7 4 4 4 2 6 2 11 10 11 6 8 9 13 14 13 3 1 3 6 6 5 5 4 2 2 3 9 7 7 10 9 9 9 10 7
33 35 36 36 34 33 24 23 18 3 1 1 1 2 8 10 3 10 15 6 1 6 9 12 1 3 5 6 5 6 5 2 2 5 1 4 6 7 8 8 7 10 10 9 8
34 36 36 36 33 32 24 10 11 5 5 3 0 2 5 3 11 10 14 14 5 4 5 6 6 3 4 5 5 5 3 4 8 10 7 6 10 5 5 9 10 11 11 11 12
35 35 36 36 33 23 20 4 7 5 4 6 10 5 13 12 15 3 7 7 3 4 3 3 5 4 6 3 3 1 2 3 5 9 11 20 6 13 8 6 9 10 11 10 11
33 34 35 35 34 9 13 7 6 6 11 10 13 11 22 1 4 8 1 4 4 3 2 6 4 9 5 4 4 3 2 7 9 6 7 10 17 10 11 15 18 17 14 13 7
34 33 34 34 21 9 12 4 20 13 4 8 5 6 5 12 8 11 6 3 3 2 2 5 6 4 2 4 3 3 2 4 7 5 4 9 5 4 7 5 7 8 11 12 18
32 32 31 35 3 22 9 21 26 2 4 6 4 6 5 6 5 12 12 6 1 7 6 5 4 3 5 7 8 4 7 6 4 3 4 2 4 5 11 14 11 13 11 14 14
30 29 29 25 16 9 11 24 22 2 4 1 2 6 5 9 3 3 7 4 6 5 5 7 5 6 5 8 7 11 7 8 3 3 4 1 3 6 6 11 17 14 16 15 16
30 28 29 13 19 15 18 25 3 5 5 5 4 4 5 2 2 2 1 4 2 4 2 6 3 4 8 5 7 5 5 7 5 3 2 4 5 5 6 16 24 18 19 18 15
30 28 28 22 5 13 19 5 4 3 5 4 3 2 4 6 3 6 4 5 6 3 3 5 4 5 5 2 3 6 7 2 3 3 5 4 3 8 6 9 9 17 22 23 18
32 31 25 26 21 13 6 4 3 3 5 3 4 6 7 3 5 5 4 4 3 3 3 2 7 3 1 4 6 0 7 6 6 4 5 4 5 5 6 8 4 13 15 14 17
30 22 20 9 6 10 5 2 7 6 3 5 7 4 4 5 1 0 5 7 8 8 8 5 6 4 3 4 8 5 3 4 7 4 3 3 4 7 6 6 8 8 11 13 13
21 13 12 6 11 9 4 5 5 3 3 4 1 1 3 3 2 3 2 4 6 10 5 7 2 4 4 1 4 7 8 3 3 4 3 4 4 5 5 4 4 8 10 9 9
8 4 14 8 10 5 4 7 4 6 2 1 2 3 5 4 6 4 5 4 3 5 6 4 3 8 2 3 6 1 2 6 5 4 6 2 6 7 9 9 11 10 13 16 17
6 3 9 8 3 0 4 6 3 2 4 4 3 8 5 2 4 6 7 4 1 1 2 4 5 6 8 5 3 7 6 6 5 3 0 3 6 6 9 8 9 11 13 13 15
3 3 1 5 3 3 5 3 4 2 3 3 4 4 3 3 3 6 5 4 1 2 2 4 1 1 8 6 5 3 5 5 5 4 7 5 7 3 3 5 10 10 9 12 15
3 3 4 4 1 3 3 5 5 3 5 6 6 5 5 5 8 5 5 2 1 2 8 6 4 6 8 8 3 3 5 5 6 4 5 6 6 6 7 8 9 10 9 12 14
1 3 1 4 1 3 2 3 1 2 3 1 4 3 3 4 5 4 5 2 2 2 4 5 4 5 5 6 3 4 2 4 5 5 6 7 9 9 9 10 12 9 9 7 12
1 2 4 3 4 4 2 3 4 3 3 4 5 7 6 6 8 5 3 4 4 1 3 1 3 1 3 4 5 5 6 9 7 5 5 7 9 11 10 7 7 10 8 10 10
3 3 0 3 4 2 3 3 4 4 5 5 4 5 5 7 6 5 4 3 4 4 2 3 5 3 5 4 6 7 7 9 6 5 6 8 9 7 8 10 10 9 12 14 15
Wind_Direction
17 17 16 17 17 14 6 353 346 339 331 332 328 325 315 314 306 272 244 212 163 227 261 287 285 25 141 175 177 142 68 166 180 154 166 152 147 214 197 173 225 152 132 167 166
13 12 12 12 14 14 10 1 355 349 346 346 337 317 321 333 307 244 244 207 204 223 279 348 57 21 15 215 232 109 123 213 187 164 166 173 180 169 146 187 356 79 106 141 156
9 7 6 7 8 11 10 3 358 354 355 358 341 332 339 335 289 250 192 205 202 223 241 291 279 113 110 276 224 178 199 178 210 190 164 158 177 204 144 188 196 146 149 159 165
4 3 3 2 3 3 7 1 355 349 350 349 340 334 337 354 160 241 280 202 209 228 209 174 69 138 150 190 237 177 21 121 155 174 122 165 98 112 223 225 168 152 154 166 173
0 0 358 358 359 357 358 356 348 339 334 337 336 338 359 343 252 275 187 160 178 190 208 192 128 150 10 269 306 101 62 77 83 10 49 57 66 82 14 19 137 142 150 174 182
356 356 355 353 355 352 350 348 339 335 315 319 332 342 44 313 315 286 184 172 171 193 199 185 218 176 218 270 44 118 87 61 26 4 359 113 5 13 192 149 126 140 132 146 151
353 352 351 350 351 349 347 342 327 316 302 295 318 340 96 240 296 261 203 203 200 201 222 230 214 123 170 340 78 104 87 50 339 342 307 152 335 250 198 140 105 112 118 117 114
350 349 348 347 349 347 346 340 342 311 261 285 318 358 254 258 301 246 224 245 214 229 249 278 266 209 94 132 45 75 62 120 240 341 280 4 241 219 194 164 149 135 134 126 101
345 345 344 345 347 346 351 347 348 19 108 357 87 96 274 309 280 258 223 241 236 250 258 275 31 83 25 90 44 351 159 182 16 198 270 185 238 234 183 172 151 154 148 140 123
342 342 341 342 345 344 352 11 22 58 65 47 313 7 289 321 310 280 229 235 266 325 11 52 43 38 46 69 180 175 140 160 175 212 229 212 263 259 178 174 175 160 156 153 151
339 339 338 339 343 344 3 354 6 351 14 223 252 226 277 288 311 288 260 156 130 68 173 14 67 230 243 151 130 121 139 281 249 200 164 218 238 222 172 167 165 170 165 173 168
337 337 337 338 341 347 13 88 81 305 297 240 234 239 249 290 314 296 277 135 120 180 105 19 262 233 226 187 179 152 10 296 287 143 152 175 228 229 186 199 187 177 178 175 153
340 338 337 337 340 352 345 78 335 348 259 300 220 207 212 153 215 262 157 157 158 147 149 161 232 79 185 297 341 328 228 256 220 147 68 119 339 199 231 193 189 205 198 178 173
336 338 339 339 7 336 315 332 335 325 25 276 249 264 147 132 276 223 195 142 185 208 170 229 263 210 213 233 147 244 209 213 243 121 183 148 231 244 216 215 204 200 192 189 180
332 336 335 341 314 312 314 328 334 118 339 285 214 169 156 149 225 257 178 83 185 206 111 244 296 338 305 235 140 228 172 189 160 121 109 276 102 254 140 228 223 208 203 196 181
329 331 328 334 307 293 324 328 345 45 255 316 155 181 127 225 287 79 130 72 161 179 210 236 239 201 223 251 177 132 98 51 49 84 59 236 133 283 185 213 228 209 204 197 182
326 323 316 299 256 299 317 351 40 161 316 343 0 333 209 203 235 181 175 185 186 133 306 333 264 278 205 107 39 81 68 352 342 9 203 159 77 235 266 234 210 222 209 196 174
325 321 313 286 276 270 321 52 197 244 254 328 309 273 182 185 245 192 163 222 241 110 120 164 322 208 227 148 193 192 147 153 199 206 243 205 227 252 255 300 304 220 209 168 171
327 322 305 309 260 164 85 116 212 211 304 359 335 56 31 7 123 259 211 213 199 169 176 160 272 288 201 202 147 181 158 179 102 16 74 262 289 332 329 347 65 95 143 175 173
330 318 299 335 159 138 86 227 235 237 29 18 256 20 9 311 6 28 231 260 239 193 157 218 275 208 271 102 66 162 154 78 16 139 230 290 273 238 252 220 157 154 171 167 155
336 353 344 170 146 51 176 224 267 251 13 318 242 303 232 244 192 209 216 283 51 9 163 144 121 277 48 182 184 312 100 52 113 127 165 213 262 219 216 199 193 198 184 175 180
351 336 151 167 29 243 181 194 224 263 68 276 247 214 235 264 276 222 206 221 78 74 213 215 164 226 203 302 239 167 163 133 118 237 173 175 261 215 230 213 203 204 199 199 194
345 265 232 188 206 259 284 254 221 220 167 261 290 231 248 250 269 216 219 247 94 87 199 181 276 270 330 353 343 208 173 119 116 95 189 169 261 343 251 246 232 214 202 197 197
352 327 311 34 351 194 254 260 236 245 237 222 243 252 307 263 204 255 216 255 309 199 91 82 145 169 208 215 175 198 185 144 129 129 191 218 270 285 262 246 251 240 219 202 192
87 259 226 302 350 351 289 302 258 285 256 258 318 257 261 278 321 233 230 256 282 155 85 118 218 182 238 242 198 204 241 154 182 199 168 233 205 244 249 244 238 236 265 162 179
317 359 346 287 302 311 225 251 237 270 214 239 216 320 297 223 209 253 254 190 200 88 120 38 249 211 279 279 244 237 206 229 213 188 230 229 245 230 250 240 255 234 187 180 194
337 324 139 282 322 9 246 337 333 343 273 237 8 299 288 247 216 219 219 212 172 143 148 135 135 104 260 283 320 312 205 213 216 192 184 227 239 249 261 247 236 225 197 191 193